Location: Beuerbach
(48.1459°N, 10.9174°E)
Time: 19:42:05
(UTC+00:00)

SL-16 R/B - Pass Details

Date: 16 August 2024
Orbit: 842 x 845 km, 71.0° (Epoch: 07 September)

Event Time Altitude Azimuth Distance (km) Brightness Sun altitude
Exits shadow 21:34:09 38° 91° (E) 1,265 2.8 -24.1°
Drops below altitude 10° 21:38:43 10° 40° (NE) 2,474 4.9 -24.5°
Sets 21:41:18 0° 33° (NNE) 3,414 5.8 -24.7°
